Back to catalog

OPS 4682 DEB

AlivePO
NORAD 18538·DEBRIS·🇺🇸 United States

Launched Apr 3, 1965 from Vandenberg Space Force Base

Loading…

Next Passes (next 24 hours)

TLE

FreshSource: Space-Track

Epoch: Sep 13, 2026, 07:11 UTC

1 18538U 65027AF  26256.29988198  .00000373  00000-0  12988-2 0  9993
2 18538  90.2462   5.6279 0027309 294.5315  91.6526 12.95332851507076

Track OPS 4682 DEB in real time with AllMySat

Download on the App Store